[[{"header":{"parameterUnit":"m.s-1","parameterCategory":1,"la1":30.2991,"la2":30.254,"lo1":-89.0895,"lo2":-89.0444,"dy":0.0017,"dx":0.0017,"nx":28,"ny":28,"refTime":"2023-10-27T03:00:00:Z","depth":0,"parameterNumber":2,"parameterNumberName":"U-component_of_WINDS"},"data":[0,0,0,0,0,0,0,0,0,0,0,0,0,0,0,0,0,0,0,0,0,0,0,0,0,0,0,0,0,0,0,0,0,0,0,0,0,0,0,0,0,0,0,0,0,0,0,0,0,0,0,0,0,0,0,0,0,0,-4.1459,-4.146,0,-4.1536,-4.1537,-4.1538,-4.1429,-4.1425,-4.1421,-4.1418,-4.1496,-4.1501,-4.1507,0,0,0,0,0,0,0,0,0,0,0,0,0,-4.1217,-4.1222,-4.1459,-4.146,-4.1461,-4.1536,-4.1537,-4.1538,-4.143,-4.1425,-4.142,-4.1416,-4.1494,-4.1501,-4.1507,0,0,0,0,0,0,0,0,0,0,0,0,0,-4.1311,-4.1224,-4.1459,-4.1416,-4.1413,-4.1536,-4.1537,-4.1538,-4.1431,-4.1425,-4.1419,-4.1414,-4.1492,-4.15,-4.1508,-4.1677,0,0,-4.1534,-4.1538,0,0,0,0,0,0,0,0,-4.1306,-4.132,-4.1421,-4.1419,-4.1416,-4.1467,-4.148,-4.1585,-4.1432,-4.1424,-4.1418,-4.1411,-4.1491,-4.1499,-4.1526,-4.168,-4.1684,-4.1535,-4.154,-4.1544,-4.1546,0,0,0,0,0,0,0,-4.13,-4.1316,-4.1489,-4.1423,-4.1419,-4.1393,-4.14,-4.15,-4.1489,-4.1424,-4.1416,-4.1427,-4.1488,-4.1518,-4.1527,-4.1685,-4.1535,-4.1543,-4.1548,-4.1551,-4.1982,-4.1988,0,0,0,0,0,0,-4.1298,-4.1311,-4.1487,-4.1492,-4.1345,-4.1402,-4.1409,-4.1456,-4.1487,-4.1487,-4.1432,-4.1422,-4.1507,-4.1517,-4.153,-4.1729,-4.1544,-4.1552,-4.1557,-4.1976,-4.1984,-4.1991,0,0,0,0,0,0,-4.1293,-4.1315,-4.1484,-4.14,-4.1419,-4.1412,-4.1466,-4.1461,-4.1491,-4.1493,-4.1491,-4.1465,-4.1502,-4.1518,-4.1641,-4.173,-4.1556,-4.1563,-4.1969,-4.1978,-4.1987,-4.213,0,0,0,0,0,0,-4.1287,-4.1314,-4.1378,-4.1402,-4.1424,-4.1595,-4.1471,-4.1467,-4.1506,-4.1493,-4.1523,-4.1523,-4.1499,-4.1629,-4.165,-4.1739,-4.157,-4.196,-4.1973,-4.1984,-4.2117,-4.2143,-4.2165,0,0,0,0,0,-4.1279,-4.1414,-4.1381,-4.1403,-4.1503,-4.16,-4.1612,-4.1583,-4.1514,-4.1578,-4.158,-4.1522,-4.1718,-4.1643,-4.1665,-4.1758,-4.1955,-4.1969,-4.1983,-4.2106,-4.2138,-4.2164,0,0,0,0,0,0,-4.1399,-4.1416,-4.138,-4.1527,-4.1563,-4.1581,-4.1661,-4.1617,-4.1672,-4.1658,-4.1619,-4.1627,-4.1759,-4.1771,-4.1687,-4.1923,-4.1825,-4.1844,-4.191,-4.194,-4.1964,-4.1958,-4.1577,0,0,0,0,0,-4.1444,-4.1521,-4.1531,-4.166,-4.168,-4.1668,-4.1709,-4.1683,-4.1718,-4.1732,-4.1743,-4.1779,-4.1849,-4.1895,-4.1959,-4.2119,-4.2124,-4.2194,-4.2218,-4.2237,-4.2254,-4.234,-4.2371,-4.2038,-4.2037,-4.2037,0,0,-4.1534,-4.1553,-4.1604,-4.1685,-4.1709,-4.179,-4.1681,-4.1771,-4.183,-4.1746,-4.1863,-4.1873,-4.1911,-4.2053,-4.2116,-4.2067,-4.2348,-4.2256,-4.2271,-4.2277,-4.2358,-4.239,-4.2418,-4.2047,-4.2045,-4.2044,0,0,-4.1742,-4.1764,-4.1874,-4.1901,-4.194,-4.1932,-4.1959,-4.1984,-4.1988,-4.2105,-4.2044,-4.2114,-4.2235,-4.2265,-4.2296,-4.2517,-4.2466,-4.2539,-4.2664,-4.2748,-4.2775,-4.2798,-4.2877,-4.2906,-4.2556,-4.2557,-4.2557,0,-4.1849,-4.1969,-4.1936,-4.2031,-4.2068,-4.1997,-4.2108,-4.2136,-4.2195,-4.2222,-4.2166,-4.2317,-4.2338,-4.2486,-4.2541,-4.2568,-4.2597,-4.2535,-4.2774,-4.2796,-4.2818,-4.2892,-4.2922,-4.2565,-4.2564,-4.2563,-4.2563,0,-4.21,-4.2184,-4.2268,-4.2327,-4.2374,-4.2477,-4.246,-4.2511,-4.2483,-4.248,-4.2602,-4.2624,-4.2692,-4.2726,-4.2698,-4.2871,-4.284,-4.278,-4.268,-4.2859,-4.2928,-4.2957,-4.2578,-4.2575,-4.2572,-4.257,0,0,-4.2383,-4.2424,-4.2455,-4.2482,-4.2521,-4.2585,-4.2685,-4.2752,-4.2798,-4.2841,-4.2924,-4.3029,-4.2974,-4.301,-4.2985,-4.3059,-4.3233,-4.299,-4.299,-4.3034,-4.3426,-4.347,-4.3504,-4.32,-4.3206,-4.321,-4.3423,0,-4.2589,-4.2762,-4.2737,-4.2903,-4.2981,-4.2916,-4.3003,-4.3037,-4.3038,-4.3104,-4.3105,-4.318,-4.3102,-4.3123,-4.3194,-4.3197,-4.3311,-4.3182,-4.3277,-4.3281,-4.3268,-4.354,-4.3587,-4.3787,-4.345,-4.3454,-4.3458,0,-4.2852,-4.2907,-4.3082,-4.311,-4.3142,-4.322,-4.3281,-4.3345,-4.3382,-4.3378,-4.3419,-4.3381,-4.3482,-4.3382,-4.3519,-4.3432,-4.347,-4.3478,-4.3485,-4.3491,-4.3379,-4.3554,-4.3849,-4.3879,-4.35,-4.3497,-4.3494,0,-4.3041,-4.3158,-4.3278,-4.3302,-4.3339,-4.3396,-4.3414,-4.3445,-4.3488,-4.3541,-4.3568,-4.3632,-4.3667,-4.3718,-4.3699,-4.3628,-4.3841,-4.3739,-4.384,-4.3841,-4.3887,-4.3884,-4.4192,-4.3913,-4.3913,-4.3912,-4.3911,0,-4.3274,-4.3383,-4.3363,-4.3437,-4.3558,-4.3528,-4.3649,-4.3658,-4.3688,-4.3763,-4.371,-4.3781,-4.3752,-4.3822,-4.3808,-4.3925,-4.3941,-4.394,-4.3935,-4.3944,-4.3945,-4.3968,-4.3953,-4.392,-4.3918,-4.3917,-4.3915,0,-4.3504,-4.3495,-4.3621,-4.3646,-4.3655,-4.3743,-4.3764,-4.3834,-4.3832,-4.3927,-4.3948,-4.3945,-4.4024,-4.4011,-4.4098,-4.4089,-4.4235,-4.4213,-4.4222,-4.4217,-4.4319,-4.4309,-4.4652,-4.4695,-4.4389,-4.4392,-4.4394,0,-4.3652,-4.3735,-4.377,-4.3816,-4.3839,-4.3914,-4.3958,-4.3933,-4.3981,-4.4031,-4.4095,-4.4169,-4.4228,-4.4358,-4.4363,-4.443,-4.4409,-4.4525,-4.4419,-4.4426,-4.4411,-4.4406,-4.4414,-4.4545,-4.4549,-4.4552,-4.4554,0,-4.3917,-4.3909,-4.3974,-4.4039,-4.4093,-4.4142,-4.4187,-4.4228,-4.4207,-4.4263,-4.4344,-4.439,-4.448,-4.4555,-4.4619,-4.4636,-4.4593,-4.4588,-4.4614,-4.4624,-4.4626,-4.4627,-4.4279,-4.4579,-4.4577,-4.4575,-4.4574,-4.4573,-4.411,-4.4181,-4.4217,-4.4292,-4.4323,-4.4366,-4.4433,-4.4441,-4.4508,-4.458,-4.4561,-4.4653,-4.469,-4.477,-4.4796,-4.4868,-4.4825,-4.4864,-4.4873,-4.4883,-4.4896,-4.4616,-4.4879,-4.4878,-4.4878,-4.4877,-4.4877,0,-4.4371,-4.4392,-4.4461,-4.4526,-4.4585,-4.454,-4.4587,-4.464,-4.4722,-4.476,-4.4819,-4.4913,-4.4986,-4.4999,-4.5069,-4.5124,-4.5105,-4.5143,-4.5138,-4.5143,-4.493,-4.4899,-4.5157,-4.5157,-4.5157,-4.5157,-4.5157,-4.5157,-4.4514,-4.4632,-4.4629,-4.4763,-4.4782,-4.4872,-4.4904,-4.4944,-4.4974,-4.5082,-4.5143,-4.5151,-4.5179,-4.5251,-4.5316,-4.5318,-4.5346,-4.5392,-4.5386,-4.5186,-4.5158,-4.5131,-4.5102,-4.5398,-4.5398,-4.5593,-4.5594,-4.5596]},{"header":{"parameterUnit":"m.s-1","parameterCategory":1,"la1":30.2991,"la2":30.254,"lo1":-89.0895,"lo2":-89.0444,"dy":0.0017,"dx":0.0017,"nx":28,"ny":28,"refTime":"2023-10-27T03:00:00:Z","depth":0,"parameterNumber":3,"parameterNumberName":"V-component_of_WINDS"},"data":[0,0,0,0,0,0,0,0,0,0,0,0,0,0,0,0,0,0,0,0,0,0,0,0,0,0,0,0,0,0,0,0,0,0,0,0,0,0,0,0,0,0,0,0,0,0,0,0,0,0,0,0,0,0,0,0,0,0,1.3324,1.3325,0,1.3409,1.341,1.3411,1.344,1.3439,1.3439,1.3439,1.3523,1.3525,1.3528,0,0,0,0,0,0,0,0,0,0,0,0,0,1.3184,1.3187,1.3324,1.3325,1.3326,1.3409,1.341,1.3411,1.344,1.3439,1.3439,1.3438,1.3522,1.3525,1.3528,0,0,0,0,0,0,0,0,0,0,0,0,0,1.3254,1.3187,1.3323,1.335,1.3353,1.3409,1.341,1.3411,1.344,1.3439,1.3439,1.3438,1.3521,1.3525,1.3529,1.3563,0,0,1.354,1.3542,0,0,0,0,0,0,0,0,1.325,1.326,1.3345,1.3348,1.3352,1.3413,1.3392,1.3462,1.344,1.3407,1.3439,1.3438,1.3487,1.3493,1.351,1.3567,1.357,1.3541,1.3543,1.3545,1.3546,0,0,0,0,0,0,0,1.3246,1.3256,1.3357,1.3346,1.3351,1.3357,1.3367,1.3405,1.3448,1.341,1.3412,1.3422,1.3488,1.3507,1.3512,1.3571,1.3541,1.3544,1.3546,1.3548,1.3662,1.3663,0,0,0,0,0,0,1.3236,1.3252,1.3355,1.336,1.3299,1.336,1.3371,1.3394,1.3448,1.3456,1.3422,1.3423,1.35,1.3508,1.3516,1.356,1.3545,1.3548,1.355,1.3662,1.3662,1.3663,0,0,0,0,0,0,1.3233,1.3245,1.3351,1.3307,1.3321,1.3363,1.3389,1.3396,1.3414,1.3458,1.3465,1.3433,1.35,1.351,1.3551,1.3564,1.355,1.3554,1.3661,1.3662,1.3663,1.3649,0,0,0,0,0,0,1.3229,1.3244,1.3257,1.3307,1.3323,1.3386,1.339,1.3398,1.3421,1.3423,1.347,1.3477,1.35,1.3546,1.3555,1.3569,1.3557,1.366,1.3661,1.3663,1.3649,1.365,1.3651,0,0,0,0,0,1.3224,1.3249,1.3258,1.327,1.3341,1.3386,1.3396,1.3423,1.3422,1.3436,1.3464,1.3475,1.3561,1.355,1.3561,1.3575,1.3659,1.3661,1.3662,1.3648,1.365,1.3651,0,0,0,0,0,0,1.3198,1.3256,1.3266,1.3308,1.3342,1.3391,1.3409,1.3423,1.3457,1.3457,1.3489,1.35,1.3539,1.3561,1.3548,1.3612,1.3611,1.3615,1.3596,1.3598,1.3599,1.3592,1.356,0,0,0,0,0,1.3198,1.3231,1.3279,1.3311,1.3328,1.3366,1.3387,1.3405,1.3442,1.3456,1.3487,1.3521,1.3556,1.3578,1.3612,1.3653,1.3664,1.3668,1.3669,1.367,1.3673,1.3697,1.37,1.3669,1.3669,1.3669,0,0,1.3196,1.3232,1.3251,1.3307,1.3336,1.3369,1.3378,1.3412,1.3437,1.3461,1.3502,1.3527,1.3567,1.3608,1.3628,1.3628,1.3684,1.3672,1.3672,1.3675,1.3699,1.3702,1.3705,1.367,1.367,1.3669,0,0,1.3211,1.3241,1.3272,1.3302,1.3346,1.3371,1.3379,1.3426,1.3444,1.3486,1.3505,1.3536,1.3594,1.3623,1.3645,1.3674,1.3686,1.3684,1.3689,1.3712,1.3715,1.3717,1.3728,1.3732,1.3687,1.3687,1.3687,0,1.3203,1.3255,1.3286,1.3321,1.3345,1.337,1.3402,1.3429,1.3481,1.3498,1.3498,1.3574,1.3602,1.3652,1.3659,1.3676,1.3686,1.3679,1.3712,1.3715,1.3717,1.3728,1.3732,1.3686,1.3687,1.3687,1.3687,0,1.3244,1.328,1.33,1.3352,1.3379,1.3412,1.3448,1.3471,1.3488,1.3514,1.3558,1.3594,1.3636,1.365,1.3665,1.3702,1.3701,1.3706,1.3705,1.372,1.373,1.3735,1.3686,1.3686,1.3686,1.3686,0,0,1.3243,1.3315,1.3321,1.3346,1.3398,1.3426,1.3461,1.3504,1.3525,1.356,1.359,1.3641,1.3647,1.3672,1.3692,1.3713,1.3735,1.3716,1.3717,1.3719,1.3779,1.3774,1.3779,1.3743,1.3744,1.3745,1.3775,0,1.3265,1.3329,1.3359,1.341,1.3444,1.3469,1.35,1.3535,1.356,1.3592,1.362,1.3656,1.366,1.3676,1.3698,1.3727,1.3747,1.3726,1.3772,1.3773,1.3761,1.3784,1.378,1.3807,1.378,1.3781,1.3781,0,1.3299,1.3337,1.3392,1.3442,1.3457,1.3484,1.3528,1.3558,1.3599,1.3616,1.3646,1.3665,1.3703,1.37,1.3752,1.3737,1.3758,1.3775,1.3777,1.3782,1.3778,1.3791,1.3816,1.382,1.3788,1.3787,1.3787,0,1.3294,1.3359,1.3401,1.3421,1.348,1.3499,1.3524,1.3565,1.359,1.3627,1.3644,1.3685,1.3708,1.3739,1.3769,1.3764,1.382,1.3818,1.3835,1.3834,1.3845,1.3844,1.3874,1.3858,1.3858,1.3858,1.3858,0,1.3315,1.3348,1.34,1.3425,1.3463,1.3497,1.3533,1.356,1.3597,1.3628,1.3652,1.368,1.3719,1.3752,1.3776,1.3817,1.3827,1.3842,1.3848,1.384,1.3838,1.3853,1.3852,1.3859,1.3859,1.3859,1.3858,0,1.3316,1.3352,1.3399,1.3452,1.3466,1.3492,1.3537,1.3563,1.3591,1.363,1.3641,1.3684,1.3725,1.3759,1.3812,1.3828,1.3871,1.3877,1.3857,1.3861,1.3875,1.3874,1.3917,1.3925,1.3903,1.3903,1.3903,0,1.3327,1.3353,1.341,1.3434,1.3459,1.3496,1.3523,1.3558,1.3585,1.3635,1.3655,1.3698,1.3734,1.3799,1.3834,1.3876,1.3884,1.3896,1.389,1.3882,1.3885,1.3883,1.3886,1.3896,1.3896,1.3897,1.3897,0,1.3344,1.3361,1.3399,1.3444,1.3475,1.3512,1.3549,1.3566,1.3608,1.3637,1.368,1.3709,1.3765,1.3808,1.3853,1.3879,1.3895,1.3899,1.3905,1.3897,1.3885,1.3892,1.3859,1.3897,1.3897,1.3897,1.3897,1.3897,1.335,1.3376,1.3421,1.3462,1.3495,1.3529,1.3557,1.3589,1.3626,1.3675,1.3694,1.3739,1.378,1.3844,1.387,1.3905,1.3907,1.3915,1.3918,1.3919,1.3919,1.3879,1.3914,1.3914,1.3914,1.3914,1.3914,0,1.3369,1.34,1.3438,1.3491,1.3524,1.3538,1.3581,1.3607,1.3647,1.3685,1.3721,1.3772,1.3814,1.3854,1.3898,1.3919,1.3928,1.393,1.3928,1.3934,1.3914,1.3905,1.3922,1.3922,1.3922,1.3922,1.3922,1.3922,1.3383,1.3427,1.345,1.351,1.3541,1.3586,1.3609,1.3641,1.3673,1.3729,1.3765,1.3791,1.383,1.3878,1.3918,1.3928,1.3944,1.3944,1.3956,1.3937,1.3935,1.3934,1.3926,1.3947,1.3947,1.3973,1.3974,1.3974]}]]